Regional Weather Roundup
Issued by NWS Charleston, SC

Current Version | Previous Version | Graphics & Text | Print | Product List | Glossary On
Versions: 1 2 3 4 5 6 7 8 9 10 11 12 13 14 15 16 17 18 19 20 21 22 23 24 25 26 27 28 29 30 31 32 33 34 35 36 37 38 39 40 41 42 43 44 45 46 47 48 49 50
000
ASUS42 KCHS 102311
RWRCHS

REGIONAL WEATHER ROUNDUP
NATIONAL WEATHER SERVICE CHARLESTON SC
600 PM EST SUN DEC 10 2017

NOTE: "FAIR" INDICATES FEW OR NO CLOUDS BELOW 12,000 FEET WITH NO
SIGNIFICANT WEATHER AND/OR OBSTRUCTIONS TO VISIBILITY.

NOT ALL STATIONS ARE QUALITY CONTROLLED. USE DATA WITH CAUTION...
ESPECIALLY DEWPOINT OBSERVATIONS.

SCZ027-030-031-034>040-042>050-110000-
...SOUTHEAST SOUTH CAROLINA...

CITY           SKY/WX    TMP DP  RH WIND       PRES   REMARKS
N CHARLESTON   CLEAR     40  29  64 SW6       30.22R WCI  36
WATERFRONT PRK   N/A     46  34  62 S7        30.07R
JOHNS ISLAND   FAIR      41  32  70 S5        30.23R
PINOPOLIS        N/A     43  32  65 VRB3      30.13S
MONCKS CORNER  FAIR      37  32  81 CALM      30.21R
SUMMERVILLE    FAIR      39  32  75 CALM      30.22R
BEAUFORT MCAS  CLEAR     42  32  67 SW3       30.23S
BEAUFORT ARPT  FAIR      41  34  75 CALM      30.23S
HILTON HEAD IS CLEAR     43  32  65 W6        30.25R
WALTERBORO     CLEAR     39  32  75 CALM      30.23R
ALLENDALE      FAIR      41  30  65 CALM      30.21S

...SOUTHERN MIDLANDS AND PEE DEE...

CITY           SKY/WX    TMP DP  RH WIND       PRES   REMARKS
GEORGETOWN     FAIR      36  32  87 CALM      30.22R
KINGSTREE      FAIR      36  32  87 CALM      30.20R
ORANGEBURG     CLEAR     40  29  64 SW6       30.20R WCI  36
BARNWELL         N/A     43  30  61 SW3       30.21S
AIKEN          FAIR      39  27  60 SW3       30.22S
MANNING        FAIR      37  32  81 MISG      30.20S
COLUMBIA       CLEAR     41  31  67 SW5       30.19R
SUMTER         CLEAR     40  28  62 SW3       30.17R
FLORENCE       CLEAR     38  29  70 SW3       30.19R
MYRTLE BEACH   CLEAR     40  31  70 CALM      30.21R
N MYRTLE BEACH CLEAR     40  31  70 CALM      30.19R

$$

GAZ063-065-086>088-099>101-113>116-118-119-134>141-150-110000-
...SOUTHEAST GEORGIA...

CITY           SKY/WX    TMP DP  RH WIND       PRES   REMARKS
SAVANNAH ARPT  CLEAR     44  29  55 SW5       30.25R
HUNTER AAF     CLEAR     42  29  60 SW3       30.22R
FORT STEWART   CLEAR     41  32  68 CALM      30.23R
STATESBORO     CLEAR     39  32  76 CALM      30.24R
SYLVANIA       CLEAR     42  34  74 CALM      30.24R
CLAXTON        FAIR      41  36  83 CALM      30.25R

...CSRA...CENTRAL AND FAR SOUTHEAST GEORGIA...

CITY           SKY/WX    TMP DP  RH WIND       PRES   REMARKS
THOMSON        CLEAR     38  30  72 W6        30.25S WCI  34
AUGUSTA-BUSH   CLEAR     42  27  55 SW6       30.21R
AUGUSTA-DANIEL CLEAR     46  23  40 CALM      30.20S
SWAINSBORO     FAIR      43  30  61 CALM      30.24R
VIDALIA        CLEAR     45  32  61 W3        30.25R
EASTMAN        FAIR      45  21  38 W3        30.28S
HAZLEHURST     FAIR      43  26  50 CALM      30.25R
ALMA           CLEAR     45  30  55 W3        30.25S
WAYCROSS       CLEAR     43  30  62 CALM      30.26S
JESUP          NOT AVBL
BAXLEY         FAIR      41  32  70 CALM      30.25R
BRUNSWICK      CLEAR     43  32  65 CALM      30.26S
SAINT SIMONS   CLEAR     46  32  58 CALM      30.25S

$$

SCZ027-028-034-036>038-045-046-048>050-GAZ119-141-110000-
...LAKE AND SUPPLEMENTAL COASTAL OBSERVATIONS...

STATION/POSITION TIME  TEMP    WIND        PRES    WAVE   SWELL
                       AIR SEA DIR/SP/G            HT/PER HT/PER/DIR
                 (UTC) (F)     (DEG/KT/KT) (MB)    (FT/S) (FT/S/D)
WINYAH BAY       NOT AVBL
LAKE MURRAY      2220   47     250/  7/  9 1021.0S
ACE BASIN NERRS  2145   47     230/  1     1023.0
FORT PULASKI     2248   47 56  250/  4/  6 1024.3R
SAPELO ISLAND    NOT AVBL

$$

ANZ835-935-AMZ111-154-330-350-352-354-370-450-454-472-110000-
...C-MAN AND BUOY OBSERVATIONS...

STATION/POSITION TIME  TEMP    WIND        PRES    WAVE   SWELL
                       AIR SEA DIR/SP/G            HT/PER HT/PER/DIR
                 (UTC) (F)     (DEG/KT/KT) (MB)    (FT/S) (FT/S/D)
BUOY 41004       2250      73  240/  8/ 12 1023.0R   3/ 6   2/180/ 6
BUOY 41008       2250   50 62  240/  8/ 14 1024.1S   1/ 9   2/ 70/ 9
FOLLY BEACH CMAN 2200   45     230/  6/  8 1023.8R
CAPERS NEARSHORE 2208   44     230/ 10/ 14 1022.8R
FRIPP NEARSHORE  2208   44 57  210/  8/ 12 1023.4R


STATION/POSITION TIME  TEMP    WIND        PRES    WAVE   SWELL
                       AIR SEA DIR/SP/G            HT/PER HT/PER/DIR
                 (UTC) (F)     (DEG/KT/KT) (MB)    (FT/S) (FT/S/D)
5E ST. MARYS GA  2230      60                N/A     1/11
FRYING PAN BUOY  2250   47 62  280/ 10/ 14 1022.4R   3/ 7   3/200/ 7
BUOY 41025       2250   45 68  290/ 10/ 16 1021.7R   5/ 8   5/220/ 8
CAPE LOOKOUT NC  2200          270/  7/  9 1021.9R
BUOY 41002       2250   58 76  340/ 10/ 17 1021.4R   8/ 8   7/290/ 8
BUOY 41010       NOT AVBL
ST AUGUSTINE FL  2300   51 62  300/  3/  4 1025.3R


$$



USA.gov is the U.S. government's official web portal to all federal, state and local government web resources and services.